星链-30114 (STARLINK-30114 )

导读

STARLINK-30114是美国SpaceX星链星座的组网卫星,于2023年6月4日发射入轨,属于星链低轨互联网星座的扩容卫星,承担全球宽带互联网覆盖任务。星链系统通过大规模低轨卫星组网,可为偏远地区、海上等场景提供高速互联服务,该卫星进一步补充了星链星座的服务覆盖能力。

基本信息
目录编号:
56826
目录名称:
STARLINK-30114
国际标识:
2023-079D
轨道中心:
EARTH
卫星名称:
星链-30114
卫星全名:
星链-30114 (STARLINK-30114 )
卫星状态:
在轨 (已飞行1189 天)
发射日期:
2023-06-04 UTC
国别 :
美国 (US)
星等 :
--
轨道信息
数据来源 国际轨道数据 AOE轨道数据
星历时间 2026-09-05T13:17:29+0800
9小时前
查看轨道信息
2026-09-03T22:00:00+0800
2天前
查看轨道信息
半长轴 6861.191km 6861.185km
偏心率 0.0000921 0.0000274
轨道倾角 43.001° 42.999°
近地点辐角 264.412° 351.752°
升交点赤经 173.099° 182.347°
平近点角 95.663° 354.644°
近地点 482.422km 482.86km
远地点 483.686km 483.236km
周期 94.267分钟 94.267分钟
每日圈数 15.275784 15.275805
详细信息
固有亮度:
5
最大亮度:
0.5
卫星平台:
Starlink v2.0 mini
覆盖范围:
全球
运营商:
太空探索技术公司
运营商所在国:
美国
制造商(研发单位):
太空探索技术公司
制造商所在国:
美国
使用方式:
暂无
卫星简介
星链(Starlink)计划是由太空探索技术公司(SpaceX)提出的一个巨型低轨卫星互联网星座项目,计划在2019年至2024年间在太空搭建由约1.2万颗卫星组成的“星链”网络,其中1584颗将部署在地球上空550千米处的近地轨道,并从2020年开始工作。该卫星仍在工作。
2D轨道图
3D轨道图
轨道高度分析图
轨道倾角分析图
轨道综合分析图
查看轨道综合分析图